Regional Weather Roundup
Issued by NWS Albany, NY

Home | Current Version | Previous Version | Graphics & Text | Print | Product List | Glossary Off
Versions: 1 2 3 4 5 6 7 8 9 10 11 12 13 14 15 16 17 18 19 20 21 22 23 24 25 26 27 28 29 30 31 32 33 34 35 36 37 38 39 40 41 42 43 44 45 46 47 48 49 50

000
ASUS41 KALY 150410
RWRALY

NEW YORK STATE HOURLY WEATHER ROUNDUP
NATIONAL WEATHER SERVICE ALBANY NY
1100 PM EST THU DEC 14 2017

NOTE: "FAIR" INDICATES FEW OR NO CLOUDS BELOW 12,000 FEET WITH NO
SIGNIFICANT WEATHER AND/OR NO OBSTRUCTIONS TO VISIBILITY.

NYZ032-033-038>043-046>054-057>066-NYZ062>081-082-084-150500-
EAST


CITY           SKY/WX    TMP DP  RH WIND       PRES   REMARKS
ALBANY         MOCLDY    15   4  61 SW3       30.06R
GLENS FALLS    PTCLDY     1  -1  91 CALM      30.02R
POUGHKEEPSIE   CLEAR     11   2  67 CALM      30.08R
NEWBURGH       CLEAR     16   7  67 CALM      30.08R
MONTGOMERY     CLOUDY    15   3  59 W5        30.06R WCI   8
WHITE PLAINS   PTCLDY    20   4  50 W14G21    30.05S WCI   7
ISLIP          PTCLDY    23   6  48 NW12G23   30.06S WCI  12
NEW YORK CITY  CLOUDY    25   8  48 NW9       30.09S WCI  15
CENTRAL PARK   MOCLDY    24   5  44 NW8       30.10S WCI  15
$$

NYZ005>009-017-018-044>046-055-056-150500-
CENTRAL


CITY           SKY/WX    TMP DP  RH WIND       PRES   REMARKS
FULTON         LGT SNOW  18  12  77 SW10      30.02R WCI   6
SYRACUSE       CLOUDY    19  12  73 MISG      30.02S
ROME           LGT SNOW  15  12  88 CALM      30.05S FOG
ELMIRA         CLEAR      4  -1  80 CALM      30.05R
BINGHAMTON     CLEAR      8   1  73 SW7       29.97R WCI  -3
MONTICELLO     CLOUDY     6   1  80 W5        30.00R WCI  -3
$$

NYZ026>034-041>043-087-150500-
NORTH


CITY           SKY/WX    TMP DP  RH WIND       PRES   REMARKS
WATERTOWN      MOCLDY    15  10  80 N3        30.03R
FORT DRUM      NOT AVBL
OGDENSBURG     FAIR       3  -1  85 S5        30.00R WCI  -7
MASSENA        CLEAR      1  -3  83 SW5       30.02R WCI  -9
SARANAC LAKE   CLEAR      1  -1  91 W6        29.86R WCI -10
PLATTSBURGH    CLEAR      7  -3  64 CALM      29.98R
$$

NYZ001>004-010>016-019>021-085-150500-
WEST


CITY           SKY/WX    TMP DP  RH WIND       PRES   REMARKS
NIAGARA FALLS  CLEAR     11   3  70 W7        30.02F WCI   0
BUFFALO        PTCLDY    18   8  65 W7        30.01F WCI   9
DUNKIRK        CLOUDY    23  15  71 SW9       30.02F WCI  13
JAMESTOWN      LGT SNOW  16  13  88 SW6       29.97S FOG     WCI   7
WELLSVILLE     CLOUDY    16  10  77 SW6       29.94S WCI   7
ROCHESTER      FLURRIES  16  10  77 SW7       30.03S WCI   6
PENN YAN       PTCLDY    15   8  73 SW10      30.02R WCI   2
$$

             KEY
       WCI = WIND CHILL INDEX
       VSB = VISIBILITY
       HX  = HEAT INDEX
$$



USA.gov is the U.S. government's official web portal to all federal, state and local government web resources and services.